Regional Weather Roundup
Issued by NWS Wakefield, VA

Home | Current Version | Previous Version | Text Only | Print | Product List | Glossary On
Versions: 1 2 3 4 5 6 7 8 9 10 11 12 13 14 15 16 17 18 19 20 21 22 23 24 25 26 27 28 29 30 31 32 33 34 35 36 37 38 39 40 41 42 43 44 45 46 47 48 49 50
000
ASUS41 KAKQ 290710
RWRAKQ

REGIONAL WEATHER ROUNDUP
NATIONAL WEATHER SERVICE WAKEFIELD VA
200 AM EST MON DEC 29 2014

Note: "fair" indicates few or no clouds below 12,000 feet with no
significant weather and/or obstructions to visibility. * = Denotes
station may not report precipitation (e.g., rain,snow,etc.),
thunder or fog.

VAZ042-051-052>054-056-290800-
NORTHERN VIRGINIA

CITY           SKY/WX    TMP DP  RH WIND       PRES   REMARKS
WASH NATIONAL  LGT RAIN  46  38  73 N9        30.15R
DULLES         LGT RAIN  41  32  70 N8        30.13R
FORT BELVOIR   LGT RAIN  44  40  89 N1        30.14R
QUANTICO       LGT RAIN  44  39  82 NE12G21   30.15R
FREDERICKSBRG* LGT RAIN  45  44  96 N8        30.13R
STAFFORD*      LGT RAIN  43  43 100 N8        30.18R
WARRENTON      DRIZZLE   43  43 100 NE7       30.12R
CULPEPER*      DRIZZLE   45  41  87 NE3       30.13R
MANASSAS*      CLOUDY    43  39  87 N6        30.14R
LEESBURG*      CLOUDY    43  34  70 N5        30.15R
WINCHESTER     CLOUDY    43  27  52 NW7       30.14R
FRONT ROYAL*   CLOUDY    41  32  70 NE3       30.13R
LURAY*         CLOUDY    43  37  81 N10       30.11R
$$

VAZ048-049-060>072-079>083-290800-
CENTRAL AND SOUTH CENTRAL VIRGINIA

CITY           SKY/WX    TMP DP  RH WIND       PRES   REMARKS
RICHMOND       LGT RAIN  50  45  83 N12       30.09R
CHESTERFIELD*  CLOUDY    50  37  62 N7        30.10R
PETERSBURG*    DRIZZLE   53  52  97 N8        30.08R
HANOVER        CLOUDY    48  44  86 NE6       30.12R
TAPPAHANNOCK*  CLOUDY    50  42  74 N8G16     30.11R
QUINTON*       CLOUDY    49  47  92 N5        30.08R
CHARLOTTSVILLE LGT RAIN  46  44  93 E8        30.11R
GORDONSVILLE*  CLOUDY    44  42  95 NE7       30.11R
ORANGE*        LGT RAIN  45  41  87 N6        30.14R
LOUISA*        LGT RAIN  46  45  93 NE8       30.10R
BUMPASS*       CLOUDY    45  43  92 CALM      30.12R
FARMVILLE*     CLOUDY    52  51  97 N5        30.09R
CREWE*         CLOUDY    52  48  86 CALM      30.08R
FORT PICKETT*  CLOUDY    51  50  95 N6        30.08R
CHASE CITY*    CLOUDY    53  53 100 N3        30.07R
CLARKSVILLE*   CLOUDY    52  52 100 CALM      30.07R
SOUTH HILL*    CLOUDY    54  53  95 NW3       30.13R
LAWRENCEVILLE* CLOUDY    54  54  99 CALM      30.06R
EMPORIA*       CLOUDY    54  54 100 NW5       30.08R
$$

VAZ088>098-290800-
SOUTHEAST VIRGINIA

CITY           SKY/WX    TMP DP  RH WIND       PRES   REMARKS
NORFOLK        CLOUDY    52  49  89 N5        30.05R
VIRGINIA BEACH MOCLDY    56  53  90 N3        30.04R
NORFOLK NAVAL  CLOUDY    54  48  80 NE8       30.06S
WEST POINT*    CLOUDY    53  46  78 N6        30.11R
SALUDA*        CLOUDY    50  44  80 N10       30.08R
NEWPORT NEWS   CLOUDY    55  49  80 CALM      30.06R
LANGLEY AFB    CLOUDY    50  46  87 NE8       30.06R
FORT EUSTIS    CLOUDY    53  53 100 NE2       30.05R
WILLIAMSBURG*  CLOUDY    54  52  94 N5        30.08R
HR EXEC AP*    PTSUNNY   52  48  87 CALM      30.07S
FRANKLIN*      CLOUDY    54 N/A N/A CALM      30.06R
WAKEFIELD      CLOUDY    56  52  86 N3        30.06R
$$

VAZ020-022-025-037-045-290800-
WEST CENTRAL AND SOUTHWEST VIRGINIA

CITY           SKY/WX    TMP DP  RH WIND       PRES   REMARKS
STAUNTON*      DRIZZLE   45  42  89 NE6       30.10R
WAYNESBORO*    CLOUDY    44  43  97 CALM      30.08R
HOT SPRINGS VA CLOUDY    37  37 100 W8        30.03R
LYNCHBURG      LGT RAIN  47  47 100 CALM      30.10R
DANVILLE       CLOUDY    51  48  89 MISG      30.09R
SOUTH BOSTON*  CLOUDY    48  47  95 CALM      30.08S
MARTINSVILLE   RAIN      47  47 100 CALM      30.10R
ROANOKE        LGT RAIN  48  46  93 N3        30.09S
BLACKSBURG     LGT RAIN  43  43  98 CALM      30.09F
DUBLIN*        RAIN      47  47 100 CALM      30.08F
MARION*        LGT RAIN  47  46  96 W3        30.08F
HILLSVILLE*    RAIN      45  45  99 CALM      30.07S
RICHLANDS*     FOG       41  39  95 CALM      30.06S VSB 1/4
WISE*          FOG       41  41 100 N3        30.08S VSB 1/4
ABINGDON*      LGT RAIN  48  48 100 CALM      30.08R
$$

MDZ021>025-VAZ099-100-290800-
SOUTHERN MARYLAND AND THE DELMARVA PENINSULA

CITY           SKY/WX    TMP DP  RH WIND       PRES   REMARKS
PATUXENT RIVER CLOUDY    46  41  82 N10       30.12R
BAY BRIDGE APT DRIZZLE   41  37  87 N3        30.15R
LEONARDTOWN    CLOUDY    45  41  87 N5        30.14R
DOVER          LGT RAIN  43  42  97 NW8       30.10R
GEORGETOWN     LGT RAIN  45  41  86 N9        30.12R
EASTON         LGT RAIN  44  44 100 N6        30.17R
CAMBRIDGE      CLOUDY    46  43  87 N12       30.12R
SALISBURY      CLOUDY    50  45  83 N9        30.10R
OCEAN CITY     CLOUDY    49  44  83 N12       30.11R
WALLOPS ISLAND LGT RAIN  50  46  86 N9        30.09R
ACCOMACK*      CLOUDY    50  43  76 N5        30.07S
$$

NCZ012>017-030>032-290800-
NORTH CENTRAL AND EASTERN NORTH CAROLINA

CITY           SKY/WX    TMP DP  RH WIND       PRES   REMARKS
ROANOKE RAPIDS CLOUDY    54  54 100 N5        30.05R FOG
RALEIGH        FOG       55  53  93 CALM      30.06R VSB 1/8
ELIZABETH CITY FOG       59  56  89 CALM      30.05R VSB 3/4
AHOSKIE*       FOG       53  52  97 CALM      30.06R VSB<1/4
EDENTON*       FOG       56  55  99 S3        30.05S VSB 1
CURRITUCK*     FOG       57  56  95 CALM      30.05S VSB 1
KILL DEVIL HLS LGT RAIN  56  56 100 CALM      30.04S VSB 3/4
MANTEO         CLOUDY    55  55 100 CALM      30.06R FOG
CAPE HATTERAS  CLOUDY    59  57  93 W3        30.05S
TARBORO*       FOG       53  52  97 CALM      30.06R VSB 1/4
GOLDSBORO      CLOUDY    57  57 100 S2        30.03F FOG
WASHINGTON     CLOUDY    59  58  98 CALM      30.06S
GREENVILLE     FOG       55  55 100 S3        30.06F VSB 1/4
NEW BERN       LGT RAIN  62  58  86 CALM      30.07S FOG
WILMINGTON     CLOUDY    60  59  96 CALM      30.05S
$$

VAZ048-290800-
ELSEWHERE

CITY           SKY/WX    TMP DP  RH WIND       PRES   REMARKS
HARRISBURG PA  CLOUDY    40  26  57 N8        30.14R
BALTIMORE      LGT RAIN  43  37  79 N3        30.13R
ANNAPOLIS      LGT RAIN  42  38  85 N5        30.14R
ANDREWS AFB    LGT RAIN  42  40  90 N7        30.13R
PHILADELPHIA   CLOUDY    44  33  65 N13       30.13R
HENDERSON NC   CLOUDY    54  53  95 N3        30.07R
GREENSBORO     LGT RAIN  51  50  96 N5        30.06R FOG
ROCKY MOUNT    FOG       53  52  96 CALM      30.05S VSB 1/4
$$

VAZ100-290800-
MARINE

STATION/POSITION TIME  TEMP    WIND        PRES    WAVE   SWELL
                       AIR SEA DIR/SP/G            HT/PER HT/PER
                 (UTC) (F)     (DEG/KT/KT) (MB)    (FT/S) (FT/S)
CAPE MAY NJ      0700   43 47  340/  2/  8 1019.3R
LEWES DE         0700   44 45  340/ 13/ 16 1019.7R
15NM E FENWICK I 0700   46 45              1018.8R   2/13
OCEAN-CITY-INLET 0700   48 45   10/  7/  9 1019.0R
WACHAPREAGUE VA  0700   52 49  340/  2/  5 1018.1S
THOMAS POINT MD  0700   42 43   10/  9/ 10 1021.8R
GOOSES REEF MD   0700   44     VRB 16/ 17  1018.9R
COVE POINT MD    0700   44      10/ 12/ 15 1019.6R
SOLOMONS ISLAND  0700      44                N/A
BISHOPS HEAD MD  0700   47 47  360/  7/  9 1018.8S
PINEY POINT MD   0700           20/ 12/ 16   N/A
POTOMAC MD       0700   46      30/ 16/ 19 1018.1F
CAMBRIDGE MD     0700   45 43  360/ 10/ 13 1019.4R
LEWISETTA VA     0700   47 45   10/  8/ 11 1019.0R
RAPPAHANNOCK LGT 0700           10/ 14/ 14 1018.7R
STINGRAY PT      0700   47      20/ 14/ 17 1018.8R
YORK RVR RNG VA  0700   48      30/  7/  8 1017.5R
YORKTOWN VA      0700   50 46  350/  2/  3 1017.7R
JAMESTOWN VA     0700   49      10/  2/  4   N/A
DOMINION TERM VA 0700   55      50/  2/  3 1017.7R
KIPTOPEKE VA     0700      51   40/  5/  7   N/A
CHES BAY BRIDGE  0700   49 47  360/  5/  6 1017.0S
CAPE HENRY VA    0700   53     350/  7/  8 1016.1F
CHESAPEAKE LGHT  0600   57     350/ 12/ 12 1017.8F
WILLOUBY STN VA  0700   51      20/  7/  8 1018.2R
S CRANEY ISL VA  0700          360/  3/  4 1017.5R
CAPE HENRY BUOY  0700      48                N/A     2/13   2/13
1ST LANDING BUOY 0700   49      10/  4/  6 1016.9F
CAPE CHARLES BUO 0700      48                N/A     2/13   2/13
64NM E OF VA BCH 0700   55 53  280/  4/  6 1016.8R   2/13   2/13
DUCK PIER NC     0700   57 50  290/  7/  8 1016.7R
44100 DUCK FRF   0700      50                N/A     2/13   2/13
44056 DUCK FRF   0700      49                N/A     2/13   2/13
OREGON INLET NC  0700   56 53  310/  4/  5 1017.6R
HATTERAS NC      0700   59 56  230/  2/  3 1017.9S
DIAMOND SHLS NC  0700   64                 1017.6R   3/12
CAPE LOOKOUT NC  0600   59     260/  4/  5 1017.5S
$$


USA.gov is the U.S. government's official web portal to all federal, state and local government web resources and services.